Home   Weather   Rasht   Past weeks
Flag for Iran

Past Weather in Rasht, Iran — Yesterday and Last 2 Weeks

Now
41 °F

Clear.


Feels Like: 41 °F
Forecast: 62 / 40 °F
Wind: No wind

Location: Rasht Airport

Current Time: Mar 21, 2019 at 5:58:27 am

Latest Report: Mar 21, 2019 at 5:30 am


Visibility: 5 mi

Pressure: 30.15 "Hg

Humidity: 100%

Dew Point: 41 °F

Location of RashtLocation

Past Weather in Rasht — Graph

°F

Rasht Temperature Yesterday

Maximum temperature yesterday: 52 °F (at 3:00 pm)
Minimum temperature yesterday: 43 °F (at 10:30 pm)
Average temperature yesterday: 47 °F

High & Low Weather Summary for the Past Weeks

 TemperatureHumidityPressure
High79 °F (Mar 16, 2:30 pm)100% (Mar 6, 3:30 am)30.48 "Hg (Mar 6, 3:30 am)
Low39 °F (Mar 21, 1:30 am)15% (Mar 16, 4:30 pm)29.65 "Hg (Mar 16, 6:30 pm)
Average53 °F82%30.02 "Hg
* Reported Mar 6 3:30 am — Mar 21 3:30 am, Rasht. Weather by CustomWeather, © 2019

Note: Actual official high and low records may vary slightly from our data, if they occured in-between our weather recording intervals... More about our weather records

Advertising

Rasht Weather History for the Previous 24 Hours

Scroll right to see more
 ConditionsComfort  
Time TempWeatherWind HumidityBarometerVisibility
3:30 am
Thu, Mar 21
41 °FClear.No wind100%30.15 "Hg4 mi
2:30 am41 °FClear.No wind93%30.15 "Hg10 mi
1:30 am39 °FClear.No wind100%30.15 "Hg10 mi
12:30 am43 °FClear.No wind100%30.15 "Hg10 mi
11:30 pm
Wed, Mar 20
45 °FClear.5 mph93%30.18 "Hg10 mi
10:30 pm43 °FClear.No wind100%30.18 "Hg10 mi
9:30 pm46 °FClear.5 mph87%30.18 "Hg10 mi
9:00 pm46 °FPassing clouds.7 mph87%30.18 "HgN/A
8:30 pm46 °FPartly cloudy.7 mph87%30.18 "HgN/A
8:00 pm46 °FPartly cloudy.9 mph87%30.18 "HgN/A
7:30 pm48 °FPartly cloudy.9 mph82%30.18 "HgN/A
7:00 pm48 °FPartly cloudy.12 mph82%30.18 "HgN/A
6:30 pm48 °FBroken clouds.12 mph82%30.15 "HgN/A
6:00 pm50 °FScattered clouds.9 mph82%30.15 "HgN/A
5:30 pm50 °FScattered clouds.9 mph76%30.15 "HgN/A
5:00 pm50 °FScattered clouds.7 mph76%30.15 "HgN/A
4:30 pm52 °FScattered clouds.7 mph67%30.15 "HgN/A
4:00 pm50 °FBroken clouds.7 mph76%30.15 "HgN/A
3:30 pm50 °FBroken clouds.7 mph76%30.15 "HgN/A
3:00 pm52 °FBroken clouds.5 mph77%30.15 "HgN/A
2:30 pm50 °FBroken clouds.5 mph76%30.15 "HgN/A
2:00 pm50 °FScattered clouds.No wind76%30.18 "HgN/A
1:30 pm50 °FScattered clouds.No wind76%30.18 "HgN/A
1:00 pm50 °FPartly sunny.No wind82%30.18 "Hg4 mi
12:30 pm48 °FLight rain. Mostly cloudy.5 mph87%30.21 "Hg4 mi
12:00 pm48 °FLight rain. Mostly cloudy.5 mph94%30.21 "Hg4 mi
11:30 am46 °FLight rain. Mostly cloudy.5 mph100%30.21 "Hg4 mi
11:00 am46 °FRain. Mostly cloudy.7 mph93%30.21 "Hg4 mi
10:30 am46 °FRain. Mostly cloudy.7 mph93%30.21 "Hg4 mi
10:00 am46 °FRain. Mostly cloudy.7 mph93%30.21 "Hg4 mi
9:30 am45 °FRain. Mostly cloudy.7 mph100%30.21 "Hg4 mi
9:00 am45 °FLight rain. Mostly cloudy.9 mph100%30.24 "Hg4 mi
8:30 am45 °FLight rain. Mostly cloudy.9 mph100%30.21 "Hg3 mi
8:00 am45 °FLight rain. Mostly cloudy.12 mph93%30.21 "Hg2 mi
7:30 am45 °FHeavy rain. Mostly cloudy.9 mph93%30.21 "Hg2 mi
7:00 am45 °FHeavy rain. Mostly cloudy.7 mph93%30.18 "Hg2 mi
6:30 am45 °FHeavy rain. Mostly cloudy.7 mph93%30.18 "Hg2 mi
6:00 am45 °FHeavy rain. Mostly cloudy.9 mph93%30.18 "Hg2 mi
5:30 am45 °FHeavy rain. Mostly cloudy.9 mph93%30.18 "Hg1 mi
Weather by CustomWeather, © 2019

See weather overview